Theta_e
310 300 297 297 300 301 303 304 303 304 304 303 302 301 299 300 301 304 300 297 298 297 296 298 299 299 300 301 302 303 302 301 301 300 300 300 300 300 306 309 309 311 314 317 322 323 324 325 326 326 326 326 327 327 327 327 327 328 329 330 329 329 330 330 329 328 326 324 324 324 323 323 325 326 327 328 328 328 327 327 328 328 328 328 328 328
308 299 298 301 303 304 304 305 305 303 303 302 303 300 299 300 299 304 301 298 299 298 297 300 300 300 301 304 304 304 303 300 300 300 300 300 300 301 302 305 308 309 313 317 319 322 323 324 325 325 325 323 324 326 326 326 326 327 329 329 330 330 330 330 330 329 328 327 326 325 324 325 326 326 326 327 328 329 329 328 329 329 329 329 328 327
299 297 301 304 306 306 305 305 304 302 301 302 301 300 299 299 303 303 299 299 299 298 295 298 297 299 301 303 305 305 304 303 302 301 301 301 300 301 303 303 306 308 310 314 317 321 322 323 324 324 324 325 326 326 326 326 326 326 327 328 329 330 330 330 331 330 328 328 328 327 327 327 325 328 328 328 328 329 329 329 329 329 329 329 328 328
294 298 303 307 307 305 304 304 303 302 302 300 300 298 297 301 299 296 297 299 298 297 294 295 295 297 300 301 303 305 305 304 303 302 302 302 301 301 302 304 305 308 309 312 315 319 321 322 323 323 323 324 325 325 325 326 326 326 326 327 328 329 330 330 330 329 330 329 329 329 329 329 328 327 328 329 329 329 329 329 330 329 330 330 329 329
297 302 307 306 306 304 302 303 302 300 298 301 301 300 299 300 301 299 295 297 297 297 297 295 292 293 296 296 298 302 305 305 305 303 302 302 302 302 303 303 306 307 309 312 315 318 320 321 321 322 323 324 324 325 325 325 326 327 326 327 327 328 329 329 328 329 331 330 328 328 327 328 328 327 328 327 327 328 328 328 329 330 330 330 330 330
300 305 307 304 304 304 303 301 301 301 297 299 302 302 302 303 301 301 295 295 293 292 294 291 283 286 294 295 296 300 301 301 304 303 302 302 301 301 301 302 304 307 310 312 314 318 320 321 321 322 322 323 323 324 325 326 326 326 327 327 327 328 328 328 329 330 330 329 329 328 327 326 326 326 327 326 326 327 327 328 329 330 330 330 330 331
302 306 305 303 303 302 302 301 302 303 298 297 299 305 304 303 302 301 300 296 286 284 291 294 285 283 293 293 296 298 299 300 302 302 303 304 303 301 302 302 303 305 307 310 312 317 318 320 321 322 322 323 323 324 325 326 326 326 327 327 327 328 328 329 329 329 328 330 329 328 328 327 326 325 327 328 329 329 328 329 329 329 330 331 330 330
303 303 303 304 302 301 300 299 303 303 299 296 304 304 303 302 301 300 300 296 292 296 297 292 291 284 285 292 296 298 298 299 300 302 303 305 305 303 302 302 302 304 305 307 308 313 318 319 321 321 323 323 323 324 324 325 326 326 326 327 327 328 327 329 330 329 328 328 329 328 327 326 327 326 326 328 329 329 329 329 329 329 330 331 330 330
303 300 302 301 301 300 298 302 304 305 300 299 302 304 301 301 301 300 298 295 293 290 286 290 293 283 283 290 295 297 295 297 299 301 303 305 306 306 303 303 303 304 305 306 306 306 313 317 318 320 322 323 324 323 323 324 325 326 326 326 327 328 327 328 329 328 328 327 328 328 327 326 326 327 327 326 327 327 327 328 328 329 329 330 330 330
304 304 304 304 301 298 302 304 305 304 299 302 304 304 303 303 302 300 296 295 290 288 286 288 293 284 286 291 292 293 294 295 297 300 302 304 307 306 303 303 303 304 304 305 307 307 307 316 318 319 321 322 323 324 323 324 324 325 325 325 326 327 328 328 329 328 329 328 327 328 327 326 326 325 326 326 325 325 325 326 326 327 327 328 328 329
305 308 308 305 302 304 304 304 305 305 305 304 303 301 299 299 295 293 293 289 288 285 287 291 293 291 284 290 292 291 293 296 298 300 301 302 302 303 304 303 304 304 304 304 305 306 307 309 316 317 317 319 321 323 323 323 324 324 325 325 324 326 327 327 329 328 328 328 327 327 327 326 326 325 325 325 325 325 325 325 325 326 326 327 328 328
303 305 303 304 308 308 307 302 306 306 304 303 298 295 294 290 291 289 287 289 285 284 286 290 291 293 283 285 294 298 298 298 298 298 300 301 303 303 302 303 304 304 303 304 304 304 306 306 307 312 314 316 318 321 322 323 324 324 325 325 324 325 326 327 328 328 329 328 327 327 327 326 326 326 325 324 324 325 325 325 325 326 326 326 327 328
297 299 303 304 305 307 303 299 297 302 301 300 298 294 289 284 284 283 285 281 283 283 283 284 290 286 288 292 296 297 297 298 298 299 300 301 302 303 303 302 303 303 302 303 303 304 304 305 306 306 310 311 314 318 320 321 323 323 324 325 324 324 325 326 327 328 328 328 327 327 326 326 326 326 326 325 325 325 325 325 325 325 325 325 325 326
293 301 301 301 301 306 304 295 292 294 297 297 295 291 287 283 282 281 283 285 284 286 284 285 289 284 289 292 298 299 301 302 301 299 299 299 300 301 303 305 303 302 302 302 302 303 303 303 304 305 306 307 310 314 317 318 320 322 323 324 324 324 325 326 326 327 327 328 328 327 327 326 325 326 326 326 325 325 326 326 325 325 325 324 325 325
286 287 295 299 294 305 303 300 298 297 297 296 299 295 289 287 283 280 283 280 282 281 282 288 285 282 282 288 292 293 295 297 299 300 299 300 300 300 301 301 299 298 299 302 302 303 303 304 304 304 303 302 303 306 311 314 317 319 320 322 322 323 323 325 325 326 326 327 328 328 327 326 326 326 326 326 326 326 326 326 326 326 326 325 325 325
291 290 298 302 301 305 301 302 302 298 295 298 298 299 292 287 290 283 284 283 283 280 278 281 283 285 290 294 295 295 294 294 293 294 295 296 297 297 298 299 299 299 299 299 299 299 300 300 300 301 302 303 302 302 303 308 312 315 318 320 321 322 322 323 323 325 326 326 327 327 327 326 325 324 325 325 325 326 327 326 326 326 326 325 325 324
291 287 298 299 302 303 303 303 301 302 287 293 296 290 293 296 293 286 283 285 285 284 281 283 283 288 294 296 298 298 297 296 294 293 293 295 296 295 297 298 297 298 298 299 299 298 299 298 299 299 299 300 302 303 303 305 308 311 313 315 317 318 320 321 322 324 324 325 325 325 327 326 325 324 324 325 325 325 326 327 327 326 326 325 323 322
290 289 295 297 295 302 306 305 301 303 301 295 289 294 298 299 297 290 284 283 281 279 281 284 283 282 284 283 294 296 296 297 293 294 295 294 294 295 297 298 298 299 300 300 299 299 299 300 300 300 299 299 300 302 302 303 304 307 309 311 313 314 316 318 320 321 323 323 323 324 324 325 325 325 324 325 325 325 325 325 326 325 325 325 324 323
296 285 289 290 297 296 301 302 299 300 300 297 294 302 294 285 287 288 287 281 280 280 281 281 284 283 286 288 289 291 293 295 296 295 294 294 294 295 295 296 298 299 302 301 299 298 299 299 300 300 300 301 302 302 302 302 303 305 306 307 309 310 313 315 317 319 320 322 322 323 322 323 324 324 324 324 324 324 324 324 324 325 325 325 325 322
297 287 286 291 293 296 297 296 287 292 297 299 301 297 300 294 289 287 288 286 284 280 279 281 284 284 290 291 292 293 294 295 294 294 294 294 294 295 295 299 299 299 300 301 301 301 300 301 302 302 302 301 302 302 302 303 304 304 305 306 307 308 309 312 315 317 318 320 320 320 319 320 322 321 322 322 322 322 323 323 323 323 323 324 323 323
292 293 284 288 293 295 288 292 291 293 289 291 293 291 293 290 292 291 290 287 283 281 280 279 278 283 290 296 296 296 297 297 295 296 296 295 295 296 296 297 299 299 299 300 300 300 300 300 301 300 299 299 298 298 300 301 302 302 303 304 305 307 308 310 313 314 316 316 317 315 317 317 317 318 319 318 320 321 321 322 321 323 324 319 321 320
289 291 285 286 287 288 291 296 297 296 295 294 293 291 293 290 285 286 284 292 289 285 281 280 280 286 293 296 298 297 298 296 297 297 298 298 294 295 298 298 298 299 298 298 298 298 297 298 298 298 297 296 296 298 298 298 300 300 300 301 302 304 306 307 309 310 311 312 312 311 312 312 313 315 317 318 316 319 319 320 319 320 317 317 316 316
296 291 288 284 287 290 293 293 293 296 298 296 296 292 296 294 291 288 284 286 288 288 288 283 281 283 294 294 295 296 296 295 295 297 297 297 296 297 299 298 298 298 297 297 296 296 296 297 297 297 297 296 296 297 296 296 299 300 299 300 301 303 303 304 305 308 308 309 310 311 312 312 312 313 312 312 312 313 315 315 315 315 316 315 312 313
295 288 286 285 288 290 292 294 295 295 297 294 294 295 295 292 293 291 290 288 286 286 284 284 281 285 293 293 294 293 293 293 294 295 295 294 295 296 296 297 296 298 298 297 297 296 296 297 297 296 296 295 295 295 295 296 297 299 300 301 301 302 302 304 304 303 303 303 305 307 308 309 309 309 309 311 312 312 312 311 312 312 314 312 310 310
291 289 288 283 282 284 286 290 291 293 294 292 291 294 295 296 295 290 286 287 284 286 286 284 280 285 292 293 289 290 292 293 293 294 293 294 296 296 294 295 296 296 296 296 296 296 296 296 295 295 295 295 295 294 296 297 299 299 298 299 299 300 300 301 303 304 303 301 302 304 306 306 307 310 311 313 312 311 309 308 307 309 312 309 308 308
292 290 288 282 278 277 276 278 281 285 288 292 293 293 294 294 293 291 287 285 283 284 287 283 284 289 291 291 291 291 291 292 292 292 293 294 295 295 296 297 297 298 297 297 297 297 296 296 295 295 295 296 296 297 297 298 299 298 297 298 298 298 298 298 299 299 301 301 304 305 305 305 305 306 308 309 307 308 306 305 304 306 305 307 308 304
288 293 291 290 287 285 286 288 292 294 290 287 289 292 292 294 295 293 290 287 284 285 284 287 288 288 291 292 290 290 290 292 294 292 292 293 294 295 295 296 297 297 298 297 297 297 296 296 296 297 297 297 297 296 298 298 300 298 297 296 297 298 297 297 298 297 297 300 303 302 302 303 303 303 303 303 304 303 301 301 299 301 302 300 303 302
287 288 291 292 291 292 293 292 294 294 290 291 290 290 293 292 292 290 288 287 291 284 282 288 290 288 290 294 292 291 292 293 294 293 292 293 294 295 296 296 297 295 294 295 297 297 296 296 295 295 296 296 297 297 298 299 299 299 297 296 295 296 296 296 296 298 300 300 300 300 300 300 300 300 300 298 296 297 295 295 294 295 295 294 299 298
290 287 291 292 291 292 293 293 295 294 293 292 292 292 291 292 292 289 290 293 292 287 285 291 292 290 292 294 293 294 294 295 295 294 294 294 295 295 294 293 294 295 296 298 298 298 298 297 296 296 296 297 295 296 296 296 296 295 295 295 296 295 296 298 299 298 298 298 298 298 299 299 300 298 295 294 295 294 294 294 293 293 293 293 293 295
293 288 291 292 290 291 291 292 294 293 293 292 292 292 293 293 292 292 292 294 293 291 293 293 293 292 295 294 297 297 296 296 295 294 293 293 294 293 294 294 295 295 295 297 298 300 299 298 297 297 297 296 297 296 296 296 296 296 296 297 298 299 299 299 298 298 298 298 297 296 296 296 296 295 293 293 293 292 292 292 292 292 293 293 293 293
294 287 293 290 288 288 291 292 292 293 292 289 291 293 293 293 293 293 293 293 293 293 294 293 292 291 296 297 297 299 299 296 292 292 292 293 294 295 295 295 294 295 295 296 296 297 298 299 298 297 297 297 297 297 298 298 298 297 296 296 298 299 299 299 298 297 297 297 296 294 293 292 291 290 291 291 290 290 291 291 290 291 291 291 291 291
293 287 291 290 286 286 288 289 290 291 290 289 289 291 291 291 289 291 290 293 291 290 291 291 289 290 296 298 298 298 299 294 292 292 291 292 294 295 294 294 294 295 296 296 296 296 298 298 298 298 298 297 297 297 297 297 297 296 296 296 297 297 298 298 298 297 296 295 293 292 292 290 290 290 289 289 290 290 289 289 289 290 290 289 290 290
291 289 288 288 286 285 287 289 289 288 287 285 286 290 291 292 293 294 294 295 294 294 290 287 289 296 295 297 298 298 298 298 295 294 293 294 295 294 294 294 295 296 296 296 296 296 298 298 298 299 298 296 298 298 298 297 296 296 296 296 295 296 296 297 296 296 295 293 292 291 290 290 290 290 289 289 289 289 288 288 289 289 289 289 289 288
293 291 288 289 285 286 286 287 288 286 279 281 293 295 294 292 292 290 290 292 294 295 293 295 295 297 296 296 296 295 296 298 299 299 299 298 297 297 298 298 298 298 297 297 298 298 298 298 298 298 298 298 298 297 296 297 296 296 295 295 293 294 295 296 295 296 293 291 291 290 290 290 290 290 289 289 288 288 288 288 288 288 288 288 288 289
290 291 288 288 286 283 286 287 284 279 281 293 296 297 297 296 295 293 293 294 295 296 296 295 296 296 296 297 297 298 297 297 299 299 298 298 298 299 299 299 298 298 298 297 297 296 296 298 297 297 296 296 296 294 295 293 293 293 293 293 293 293 295 295 294 294 293 292 291 290 290 289 289 289 289 288 288 288 288 288 288 288 288 288 288 288
289 289 289 288 287 286 284 284 278 279 288 294 295 296 298 297 295 293 291 294 295 295 296 295 296 297 298 298 298 298 297 297 296 297 298 298 299 300 300 299 297 296 296 297 296 297 296 296 297 297 297 294 295 294 294 295 293 294 292 290 291 291 293 293 293 293 292 292 291 290 290 290 289 289 289 288 288 287 287 287 287 287 287 287 287 287
293 291 290 285 287 282 283 284 284 289 287 290 290 291 294 292 292 290 286 290 295 296 296 295 296 297 298 298 299 295 294 295 293 296 295 297 299 301 301 299 298 298 298 298 297 298 297 295 295 295 294 294 294 294 293 292 292 292 290 290 290 291 292 292 292 292 292 292 291 290 290 290 289 288 288 287 287 287 287 287 287 287 287 287 287 287
295 289 288 286 283 286 283 282 283 283 281 286 293 296 299 298 298 297 292 289 296 297 298 297 296 297 297 297 296 294 294 291 292 294 296 298 301 301 297 298 296 296 296 296 296 295 295 294 293 293 294 292 291 291 291 290 291 291 290 289 290 291 291 292 292 292 292 292 292 291 290 290 290 288 287 287 287 287 287 287 287 287 287 287 286 287
293 295 290 288 285 284 283 281 281 280 284 292 292 295 297 298 297 296 290 287 295 297 298 298 297 297 297 296 295 293 292 290 292 294 297 300 301 298 298 298 298 299 298 296 296 294 292 292 290 289 289 289 290 289 288 288 289 289 288 287 289 290 291 291 292 291 292 291 291 291 290 290 289 288 287 287 287 287 287 286 286 286 286 287 286 286
288 288 288 284 282 285 284 282 281 285 286 289 294 295 297 298 299 293 281 283 295 297 298 298 297 297 297 296 295 294 293 290 292 294 297 298 297 297 299 298 297 296 293 286 286 287 288 287 289 289 289 288 288 287 288 288 288 287 287 286 287 288 289 290 291 292 292 292 291 291 290 289 288 288 287 287 287 287 287 286 286 286 286 286 286 286
284 284 286 283 284 285 285 284 285 286 291 291 294 296 297 299 296 286 281 290 294 297 298 298 298 298 298 296 296 294 296 298 296 294 294 293 292 292 289 288 288 288 286 284 285 287 286 287 286 286 286 286 286 286 287 288 288 287 286 286 286 285 287 289 291 291 292 291 291 290 289 288 288 287 287 287 287 287 286 286 286 286 286 285 286 285
284 285 285 286 284 283 285 284 284 288 290 293 290 297 298 294 284 284 294 292 293 293 295 298 298 298 298 298 297 298 299 298 290 292 290 291 293 288 286 286 286 286 285 284 285 286 286 285 285 285 284 284 284 286 286 287 287 286 286 286 286 285 285 288 290 291 291 291 290 289 288 288 287 287 287 286 286 286 286 286 286 286 286 286 285 285
285 284 282 283 286 285 284 283 281 280 290 296 294 294 296 290 291 290 287 289 288 290 292 294 296 297 299 298 299 299 297 291 290 290 290 288 289 288 287 287 287 286 286 285 284 285 287 286 284 284 283 284 284 285 285 286 286 285 285 285 284 285 286 286 287 288 289 289 288 287 287 287 287 287 287 286 286 286 286 285 285 285 285 285 285 284
290 285 285 285 288 283 283 282 283 289 290 297 296 291 294 294 292 288 290 288 290 289 291 291 292 292 294 295 293 291 291 291 288 288 288 286 285 286 284 284 284 284 283 282 283 284 285 285 284 284 283 283 283 283 283 286 286 285 285 284 283 284 285 285 284 285 286 287 287 287 286 286 286 286 286 286 286 286 285 285 285 284 284 284 284 283
290 289 290 286 290 287 286 289 290 287 294 297 297 294 297 296 294 290 290 292 291 288 288 293 293 292 294 295 294 294 291 290 289 289 290 288 286 286 285 284 284 283 283 283 283 284 284 284 284 285 285 285 284 283 282 283 285 284 284 283 283 283 284 284 284 284 283 284 285 285 285 285 285 285 285 285 286 285 285 284 284 283 283 283 283 283
292 292 287 289 289 293 291 288 289 287 291 294 292 292 298 295 290 288 289 291 289 290 291 294 291 290 290 291 293 288 291 289 288 286 286 286 285 284 283 283 283 283 282 282 283 284 285 285 285 285 284 283 282 282 282 282 282 283 281 282 282 281 283 283 283 282 282 281 281 281 282 283 284 285 285 285 285 285 285 284 283 283 282 282 282 282
287 292 289 287 286 289 286 293 287 287 289 292 293 291 294 291 288 287 287 289 289 288 288 288 290 290 290 290 292 291 287 287 288 287 286 286 285 284 284 283 283 282 282 282 283 285 285 285 285 284 284 282 280 280 280 280 281 281 281 281 281 282 282 282 282 281 280 279 279 279 279 279 280 281 283 283 284 284 283 283 283 283 282 282 282 282
286 290 290 289 285 288 289 290 287 287 290 293 292 292 292 289 287 286 286 285 285 285 285 285 286 288 287 289 288 289 288 288 288 287 286 286 285 285 284 283 282 281 281 282 284 285 285 285 284 284 283 281 280 278 278 278 278 278 280 280 281 281 282 282 281 280 278 278 279 279 279 278 279 279 277 279 281 280 280 281 282 282 281 281 281 281
287 291 287 289 287 289 287 286 288 287 288 289 289 290 292 292 289 286 285 285 285 286 285 284 283 286 287 289 287 288 288 287 288 288 286 285 285 284 283 283 281 281 281 282 284 285 284 284 283 282 281 280 279 277 276 275 276 277 277 278 279 281 280 280 279 278 277 278 278 278 278 278 277 277 277 276 278 278 279 279 279 279 279 279 279 279
289 287 291 289 286 286 287 289 287 287 285 288 288 289 289 290 289 287 285 286 285 285 284 285 284 284 284 285 286 288 289 287 286 287 286 285 284 283 282 281 281 280 281 283 283 284 283 283 282 280 279 278 277 276 274 274 274 274 275 276 277 279 279 278 278 277 277 277 277 277 277 277 275 276 276 276 275 276 276 280 282 280 277 278 282 283
290 290 290 288 287 288 291 288 291 288 286 291 293 292 290 291 292 290 288 287 286 285 285 285 285 285 286 284 284 286 287 287 286 286 285 284 283 282 282 281 281 281 281 282 282 281 281 280 280 278 277 277 276 274 273 272 272 273 273 274 274 277 278 278 278 277 277 277 276 276 276 275 275 276 276 276 275 274 274 274 277 282 282 282 281 282
Wind_Speed
7 9 12 15 13 12 10 11 9 4 8 5 6 6 8 7 7 7 6 7 7 3 7 8 9 10 9 6 8 9 7 9 10 10 8 7 7 6 7 8 8 8 8 6 9 9 9 11 10 9 8 10 9 9 12 13 12 12 11 11 13 12 11 9 9 8 9 8 7 6 7 7 7 7 7 7 6 6 7 7 7 7 8 7 7 6
10 11 14 14 10 13 14 11 9 8 5 3 1 3 6 8 8 6 5 5 3 3 2 6 8 12 12 11 11 11 12 11 9 10 11 9 8 8 7 9 10 9 5 6 6 10 10 9 10 9 8 9 12 12 12 14 14 12 12 12 12 11 11 12 11 9 9 9 9 9 9 7 7 8 7 7 7 6 5 5 7 7 8 8 8 8
11 17 16 15 10 10 11 11 10 10 10 5 4 5 6 8 8 2 10 8 5 3 7 7 10 12 12 11 10 11 12 11 10 9 10 10 9 9 10 9 8 7 7 8 8 9 11 11 11 11 10 10 13 14 14 13 12 11 12 12 11 11 12 11 11 10 9 8 8 8 7 8 6 6 7 6 5 6 6 5 5 7 7 8 6 7
14 15 13 13 13 13 12 12 11 9 9 7 5 6 7 4 5 5 6 6 4 3 2 3 7 9 10 10 12 11 12 13 13 12 9 10 11 12 12 10 10 10 10 10 9 11 11 12 11 10 10 11 11 12 11 12 14 12 11 11 12 11 11 10 11 10 9 8 6 5 6 7 7 6 6 6 6 7 7 7 6 6 7 8 7 7
18 9 15 14 15 14 15 16 14 10 10 6 6 6 6 5 4 5 4 2 3 4 5 9 10 10 11 13 11 13 15 13 13 12 12 9 9 8 7 8 11 13 12 11 10 9 10 11 13 14 13 11 12 12 13 14 14 12 15 14 12 11 11 11 11 11 9 7 5 5 4 4 4 3 6 6 7 9 9 8 8 8 6 8 8 7
11 6 17 17 16 16 15 15 16 12 9 7 8 8 6 6 6 7 9 4 1 4 8 8 4 4 6 13 12 7 6 13 13 14 14 13 9 9 9 9 8 10 12 13 13 13 14 14 12 10 11 12 12 13 13 13 14 13 13 14 13 11 11 11 12 12 11 10 9 8 8 9 9 9 9 12 11 9 9 10 8 8 8 8 8 8
11 10 16 15 15 16 15 13 15 14 9 8 7 9 10 8 6 4 2 4 2 2 3 1 5 6 5 9 4 3 4 10 10 13 14 14 13 11 12 11 9 9 9 10 10 11 12 12 12 13 14 14 14 14 12 12 14 14 12 13 14 13 12 11 12 14 12 11 11 12 12 11 12 12 10 8 9 9 8 8 9 9 9 10 10 9
9 14 16 15 16 15 13 13 12 16 9 6 7 12 11 7 4 2 3 3 4 3 1 4 2 7 10 10 5 9 12 9 7 11 15 15 15 14 12 12 11 10 10 10 11 12 15 15 16 16 16 14 16 14 12 14 13 14 15 14 15 13 13 12 12 15 15 13 13 13 12 11 11 11 10 10 9 8 8 9 10 9 8 9 9 9
21 17 18 19 16 14 15 12 9 13 7 2 5 13 9 8 5 4 3 2 2 5 5 3 3 3 6 2 6 9 10 9 12 9 10 16 17 16 13 13 13 13 13 12 12 11 13 16 16 16 15 16 16 13 14 14 14 14 13 13 14 15 14 13 14 14 16 14 13 13 12 12 10 10 9 7 8 8 8 10 9 9 8 8 9 9
8 18 20 19 15 13 8 7 7 12 10 3 4 4 3 2 1 0 0 1 1 1 11 4 4 5 12 4 4 3 6 8 7 10 9 8 15 16 14 13 14 14 12 13 15 15 13 14 16 17 17 16 16 15 14 12 10 11 11 12 13 14 13 13 15 15 16 16 13 13 13 14 11 9 8 7 8 8 7 8 9 9 9 9 9 9
5 9 11 10 12 9 10 6 6 12 2 7 6 6 5 1 3 3 4 3 2 7 11 4 5 4 10 3 8 6 5 7 8 6 5 6 5 10 12 13 13 13 13 12 12 12 13 13 15 15 15 16 14 11 12 12 12 12 12 13 14 15 12 13 15 15 16 16 14 14 14 15 13 12 10 10 10 8 8 10 9 9 9 9 9 9
8 8 8 3 10 7 11 5 1 3 8 8 3 5 7 4 3 3 2 3 3 9 2 7 8 8 10 2 3 7 4 9 9 7 8 7 8 8 8 10 11 10 10 11 12 12 11 10 10 9 12 12 13 11 12 12 12 12 13 13 15 14 14 13 13 14 15 14 15 14 14 14 14 13 12 13 12 12 13 12 11 9 9 10 10 10
9 12 5 7 5 16 12 12 4 7 7 8 7 9 10 3 3 2 3 6 9 5 1 1 6 3 19 8 9 5 5 3 5 7 7 6 7 7 7 10 10 9 8 9 9 9 9 11 12 11 12 10 10 13 15 14 13 12 12 14 15 16 16 14 13 14 15 14 15 15 14 13 12 12 13 13 12 11 12 11 11 11 11 10 10 11
5 9 12 9 1 5 13 15 8 9 11 12 14 12 11 7 6 7 4 2 3 4 3 2 3 7 5 5 14 18 19 15 8 6 5 4 5 5 2 1 2 2 3 6 7 7 7 6 7 9 10 9 9 10 11 10 10 10 10 12 14 16 14 13 13 14 14 15 15 14 14 13 11 12 12 12 12 12 11 11 12 12 12 12 13 12
11 14 15 18 10 12 14 16 21 15 19 15 8 12 8 7 4 6 6 10 8 2 3 5 4 7 3 3 3 4 5 6 8 8 6 6 7 6 5 2 2 2 1 1 2 3 3 2 2 3 4 5 5 6 7 7 8 8 9 10 13 12 11 13 14 13 15 15 14 12 13 12 11 11 11 11 11 11 12 11 12 12 11 11 11 12
15 2 6 12 2 20 16 10 8 9 5 6 4 4 6 8 4 7 2 4 3 2 1 4 7 2 2 4 6 3 2 4 4 5 4 6 6 4 5 7 7 5 4 4 3 2 2 3 3 3 3 5 5 5 5 6 7 8 10 9 10 12 11 12 12 13 14 13 11 12 12 14 13 11 10 10 10 10 11 10 12 12 11 9 9 8
7 8 12 7 8 18 15 12 8 13 11 7 7 10 6 3 1 0 2 0 1 0 8 4 6 6 8 13 13 11 8 8 6 5 5 7 7 5 7 7 7 5 5 5 5 5 5 5 6 6 6 5 6 7 9 10 10 11 10 9 10 10 8 10 12 12 10 10 10 13 13 12 12 13 13 12 12 12 10 9 9 9 9 7 8 8
17 6 3 8 14 11 15 12 11 13 6 7 7 7 4 4 2 2 5 2 1 4 5 9 12 4 4 9 3 13 15 9 5 9 9 7 6 6 8 8 6 5 5 7 7 7 7 7 8 7 7 7 7 7 7 8 7 8 9 10 11 10 11 11 10 10 11 11 12 11 12 13 13 13 13 12 11 10 8 8 8 7 8 9 9 9
9 6 0 5 4 3 9 6 5 2 1 11 11 8 11 5 6 4 1 9 6 9 5 4 8 6 11 10 2 1 6 8 7 9 7 7 6 8 6 5 4 3 2 2 4 3 3 4 4 4 5 4 3 3 4 4 4 5 5 6 7 9 9 9 8 8 9 10 9 9 10 11 12 11 10 9 7 7 9 9 9 10 9 8 8 9
9 8 1 3 2 4 6 6 9 6 2 4 5 7 7 2 6 10 10 0 3 6 4 6 6 10 8 7 5 8 7 7 6 6 8 8 7 6 5 2 4 3 1 1 1 1 1 1 2 3 4 4 3 2 1 1 1 3 5 5 6 5 5 6 8 8 9 9 8 7 6 6 7 7 7 7 7 8 8 8 8 9 9 10 8 9
7 4 8 2 4 3 8 6 11 15 12 9 9 9 7 3 2 2 2 5 3 2 4 4 5 4 3 9 13 16 14 8 5 4 4 8 7 3 5 4 4 3 2 2 1 2 2 1 0 1 3 3 3 3 2 1 2 1 1 4 4 5 5 6 6 6 6 6 6 6 7 7 6 7 6 7 8 8 8 7 8 8 7 6 8 8
3 7 10 6 2 8 7 8 7 12 14 13 13 14 14 10 4 9 8 3 4 2 4 2 10 5 3 2 10 11 8 5 5 4 3 1 5 5 4 3 3 2 1 2 2 3 4 3 3 3 3 3 4 4 4 3 2 2 3 3 3 3 4 5 4 3 3 2 2 4 4 4 4 5 6 7 7 7 7 7 8 7 6 7 7 8
6 4 11 10 8 8 4 1 2 2 13 9 11 10 11 8 5 6 11 9 5 9 3 0 5 8 5 1 6 5 5 4 5 4 3 3 4 4 3 2 1 1 1 1 2 2 2 3 3 3 5 4 4 4 4 4 4 4 4 4 4 4 5 4 4 1 2 2 1 0 0 0 1 1 3 4 5 5 5 5 5 5 7 7 6 6
12 6 10 5 6 3 1 1 2 5 5 3 5 3 10 13 14 11 6 2 6 2 4 3 8 6 1 1 2 4 5 5 3 3 2 4 5 4 3 2 1 0 0 0 1 0 0 1 1 1 1 3 3 2 3 3 3 3 4 5 5 5 5 5 4 3 4 3 1 0 0 2 3 3 4 5 4 4 4 4 4 5 6 6 6 7
7 5 13 7 5 1 4 3 1 3 1 8 9 11 13 12 12 3 3 1 3 8 9 9 13 9 3 1 1 3 2 4 4 1 4 3 3 3 3 1 1 0 1 1 1 1 1 2 2 3 4 4 4 3 3 4 4 4 4 4 4 4 4 4 5 6 5 4 4 3 2 3 3 4 5 5 4 4 4 4 4 4 6 7 8 8
5 11 17 18 20 15 12 12 14 12 17 13 14 15 12 14 18 12 12 4 9 6 10 6 11 3 1 3 2 1 3 3 4 3 3 4 4 4 2 1 0 0 1 2 2 1 3 4 4 4 4 4 4 5 5 5 5 4 4 4 4 4 4 3 3 4 4 4 4 3 4 3 3 4 4 4 4 4 4 4 4 5 5 7 9 7
4 10 13 16 20 20 19 13 4 9 8 5 7 14 16 11 9 8 2 5 13 7 8 8 10 6 12 10 5 5 4 6 6 4 5 4 3 2 2 3 2 2 3 3 4 4 2 2 4 5 5 5 5 5 6 6 6 5 5 4 2 1 1 1 1 2 3 3 3 3 2 2 3 2 2 2 3 3 3 4 4 5 5 4 6 9
3 7 12 12 17 13 7 6 16 23 23 20 17 13 9 9 6 10 12 13 7 3 8 6 10 11 18 19 9 6 6 7 6 5 4 4 5 7 6 3 5 3 4 4 3 4 5 5 4 5 5 5 5 5 6 6 6 6 6 5 3 3 3 3 2 1 1 1 2 3 3 3 2 2 2 2 2 3 3 3 3 4 3 4 6 6
8 12 14 12 14 6 10 11 13 13 15 20 23 24 24 21 17 15 15 17 13 11 16 19 20 22 26 19 7 12 10 8 8 7 8 7 5 5 5 5 5 5 5 5 5 5 4 4 4 5 5 6 5 6 5 5 5 4 4 5 5 4 4 5 4 3 3 2 3 3 2 2 1 1 2 3 3 4 4 5 5 4 5 4 4 5
3 5 10 10 10 8 8 11 13 16 13 13 15 18 20 22 23 22 21 21 20 17 21 25 23 26 28 6 7 7 7 8 6 5 5 6 7 6 6 6 6 6 6 6 6 6 5 5 4 5 5 5 7 7 7 7 7 7 7 7 7 7 5 6 5 5 4 4 4 3 3 3 4 3 3 2 3 3 4 4 4 5 5 5 5 5
3 5 13 9 8 8 7 11 12 14 14 14 16 18 18 17 19 21 19 19 18 19 22 24 21 21 13 4 5 4 10 7 5 7 8 7 7 7 7 7 7 7 7 7 6 5 5 5 5 5 6 7 8 9 9 9 8 7 8 7 7 7 7 7 6 6 5 5 4 3 3 3 3 3 3 3 3 3 3 4 4 4 4 4 4 4
4 3 5 7 9 5 4 14 13 13 14 17 17 18 19 19 17 18 19 23 21 22 22 15 13 19 17 7 4 3 2 5 7 8 6 5 7 8 8 7 7 8 8 7 6 6 6 6 6 6 7 7 7 8 7 8 7 8 9 8 8 7 6 6 6 6 6 5 5 4 4 4 4 4 3 3 3 3 3 3 4 4 4 4 4 4
9 7 10 9 9 11 9 10 14 12 8 9 16 22 24 24 26 27 27 23 17 19 16 15 23 27 4 9 12 12 11 7 8 7 5 7 9 9 10 10 10 10 9 7 6 7 7 8 7 8 7 6 6 7 8 7 7 9 8 8 7 6 7 6 5 5 5 5 5 5 5 5 5 5 4 4 4 4 4 4 4 4 5 6 4 4
9 10 9 8 11 8 9 6 10 11 16 18 19 28 29 28 27 21 20 21 19 15 14 19 23 15 7 9 10 7 9 12 10 8 10 10 8 8 9 9 10 8 6 5 6 7 8 6 6 7 7 7 7 6 6 8 8 7 6 7 6 8 7 7 6 6 6 6 6 6 6 5 6 5 5 5 5 5 5 5 5 4 4 4 4 6
12 12 8 6 7 7 9 9 10 16 16 16 8 12 20 23 20 21 21 22 19 19 22 25 23 18 9 7 9 11 8 6 8 11 9 8 8 9 13 11 9 7 7 6 5 5 6 7 6 6 5 6 5 4 5 5 5 5 5 6 7 6 7 7 7 7 7 7 7 6 6 6 6 6 5 5 5 5 4 4 5 5 5 5 6 6
10 10 6 5 4 4 9 11 12 14 6 4 9 15 14 8 12 17 22 24 26 28 27 25 24 19 13 13 10 9 10 10 8 10 10 8 9 13 15 12 6 6 6 6 6 6 6 7 8 8 8 5 5 5 5 6 6 7 6 5 7 6 6 7 7 6 6 7 7 7 6 6 6 5 5 5 5 4 4 4 4 5 4 4 3 3
11 9 8 6 4 9 8 13 14 3 4 5 6 10 16 20 23 22 20 24 22 13 14 19 23 22 21 21 15 3 2 1 5 9 6 8 12 16 16 8 7 8 7 7 7 6 5 6 6 6 5 5 5 6 5 5 6 7 7 6 6 7 7 7 7 8 8 8 7 7 6 6 6 5 5 4 4 4 4 4 4 4 3 4 4 4
8 11 3 7 4 4 11 9 6 7 9 12 18 15 24 19 16 16 11 16 8 20 24 25 28 27 22 15 7 8 0 5 14 11 7 11 18 17 7 6 6 6 6 7 3 5 5 5 4 3 5 6 5 5 5 5 6 7 7 6 6 7 7 7 7 6 6 6 7 7 7 6 7 6 6 6 6 5 4 3 3 4 4 6 6 6
4 8 4 9 6 6 5 9 9 12 17 18 10 12 14 11 9 9 4 19 19 20 23 25 26 19 15 12 10 7 8 13 20 6 12 18 17 8 7 10 8 10 9 5 5 6 5 3 4 4 4 4 5 3 5 5 6 6 5 5 5 5 5 6 5 5 6 6 6 7 7 7 7 6 6 6 6 6 6 6 5 4 4 4 4 4
7 8 6 3 2 7 9 10 12 7 15 5 14 15 13 13 15 13 6 15 30 19 19 22 25 21 16 12 10 12 15 19 19 7 12 12 9 10 13 13 11 9 1 6 6 5 4 4 4 2 2 3 4 4 6 5 6 5 5 4 5 4 4 4 4 4 5 6 7 7 6 5 6 5 6 5 4 4 5 5 5 5 5 4 4 4
4 2 7 11 9 11 14 7 4 7 8 7 16 15 14 17 15 12 14 26 3 17 20 20 21 19 16 13 13 14 18 18 11 6 7 7 5 2 1 2 2 2 5 4 4 4 5 5 4 4 3 3 4 5 5 6 6 6 5 6 5 4 4 4 3 4 5 6 7 6 6 5 5 6 4 4 4 4 4 4 5 5 5 5 4 4
3 4 2 4 9 11 11 13 12 12 4 8 6 19 19 15 10 23 19 5 10 9 14 18 19 17 17 19 16 17 18 13 7 8 7 8 9 6 4 5 5 6 5 5 5 6 5 6 6 6 4 3 4 4 5 5 6 6 6 6 5 5 5 6 5 4 5 6 6 6 5 5 4 5 5 5 6 5 4 3 4 5 5 4 5 6
13 11 10 10 6 1 2 5 3 12 9 20 15 15 18 19 21 5 4 2 2 6 8 10 13 16 20 21 23 23 14 7 10 9 9 7 8 8 7 6 7 7 6 5 4 3 7 6 6 5 4 3 3 3 4 6 6 5 5 5 4 4 5 5 5 4 5 5 5 5 6 5 5 5 4 5 5 5 5 3 4 3 3 4 4 5
9 10 6 6 5 11 12 13 12 8 5 19 25 18 18 5 0 3 7 0 1 4 8 6 7 7 8 8 8 5 6 6 5 7 6 5 5 5 5 4 5 5 5 4 3 4 6 8 6 6 4 4 4 3 3 6 7 5 6 5 4 5 5 6 5 5 5 5 5 6 5 5 5 5 4 4 4 4 4 4 3 2 2 2 3 3
5 12 13 17 13 12 16 17 6 3 9 11 12 6 12 10 0 1 1 7 6 4 3 6 8 9 11 13 10 10 6 7 8 10 11 9 8 7 6 5 5 5 5 5 4 5 5 8 9 7 6 5 5 4 4 3 7 6 5 1 4 4 5 5 5 5 5 5 5 6 5 5 5 5 4 4 5 5 4 4 4 3 2 3 3 3
11 11 5 1 7 10 7 2 0 1 3 10 2 3 15 9 1 2 0 7 6 6 8 10 8 6 6 7 10 4 8 7 8 6 6 7 7 5 6 7 6 5 5 5 5 6 8 8 8 8 9 7 6 6 6 6 5 7 2 3 4 4 5 6 6 5 5 5 5 5 6 7 6 5 5 4 3 3 3 4 4 3 3 3 3 3
2 11 6 4 3 9 13 14 4 4 3 6 7 3 7 4 2 1 2 4 1 4 3 2 8 8 8 8 9 9 6 7 8 6 7 8 8 8 8 8 6 6 6 7 6 8 8 8 9 9 8 9 6 7 6 7 7 5 4 5 4 5 6 7 7 7 6 6 6 5 6 6 5 5 5 4 4 4 4 3 3 3 3 3 3 3
6 4 9 9 4 15 16 6 6 6 7 10 7 7 7 3 5 3 3 3 1 2 4 4 4 5 4 5 6 8 7 7 11 9 9 8 9 9 8 8 8 7 5 6 7 7 8 8 9 9 9 9 7 7 7 7 7 6 6 5 5 6 7 7 7 7 6 6 5 5 6 6 7 7 5 4 4 4 4 2 3 3 4 4 4 4
1 10 8 10 10 9 5 5 6 5 6 8 6 5 6 7 7 4 4 4 3 5 4 4 4 2 5 6 7 8 9 8 9 12 11 8 8 8 8 8 7 8 8 9 7 8 8 9 10 10 10 9 7 7 7 7 7 7 7 5 5 7 8 8 7 7 6 6 6 6 5 5 4 5 5 4 5 4 3 4 2 2 1 1 2 2
9 13 11 7 10 13 15 15 10 10 8 7 4 2 2 2 4 5 5 5 5 5 4 5 3 3 2 2 5 9 11 8 7 10 11 9 9 10 10 10 9 9 9 8 9 10 11 9 10 10 9 7 7 7 7 7 6 6 6 4 4 7 10 8 8 7 6 6 6 6 6 5 5 5 5 4 4 5 4 5 5 3 2 0 1 3
14 17 13 12 15 21 17 3 9 3 4 7 11 9 8 8 9 10 10 8 7 6 7 9 7 2 2 1 1 5 7 11 10 9 10 8 8 8 9 11 11 10 10 10 12 11 11 11 10 10 9 7 6 7 7 7 6 7 7 5 4 5 7 7 8 7 6 6 5 6 6 5 5 5 5 4 4 3 3 2 2 4 5 4 4 5
Wind_Direction
158 178 191 205 201 188 188 200 194 184 166 196 197 201 221 234 231 204 154 171 183 208 235 239 250 256 257 231 239 255 247 236 228 222 215 208 210 209 188 196 209 208 213 199 187 186 188 185 184 183 177 182 185 187 186 193 199 194 189 172 185 188 187 187 194 186 183 190 190 192 194 191 183 187 187 198 207 187 181 178 177 168 173 175 186 189
181 194 210 208 187 181 190 193 196 213 240 218 145 215 228 236 251 220 155 116 158 167 250 227 245 252 253 248 238 233 250 255 242 221 219 210 202 203 200 198 201 210 205 192 181 182 184 185 184 183 182 178 184 195 194 196 198 193 188 185 183 182 190 194 194 192 189 192 193 185 191 184 179 183 187 191 195 197 191 184 177 176 176 180 182 187
198 209 206 192 183 180 187 197 201 202 215 213 195 204 230 233 246 95 112 154 156 159 255 257 262 261 258 253 246 226 228 238 240 218 215 215 210 206 205 206 201 190 199 198 194 177 182 185 186 186 188 189 192 193 196 196 197 198 194 195 187 183 190 196 192 191 198 194 194 189 185 182 182 187 183 181 182 186 198 205 189 179 178 185 187 182
197 221 193 168 192 191 190 197 200 204 217 214 199 219 226 234 200 212 152 145 158 181 271 269 275 273 269 254 244 237 225 231 232 234 226 209 212 210 208 199 194 193 193 197 191 185 184 186 187 188 192 195 194 195 196 195 198 199 202 197 193 190 188 193 196 194 198 200 199 195 179 185 180 180 179 182 180 189 200 210 204 194 181 183 189 184
200 196 175 180 184 192 196 198 198 195 211 206 205 220 231 220 219 240 107 215 159 235 254 278 276 268 249 251 240 234 226 229 230 230 237 227 211 211 212 204 192 193 189 194 194 186 181 186 193 194 195 194 197 196 197 197 196 198 199 198 192 191 191 190 192 192 190 192 201 194 179 167 177 166 181 188 202 196 199 201 206 207 185 186 190 187
204 143 168 185 182 190 195 196 196 189 208 198 217 220 239 223 235 212 130 156 242 271 204 191 337 263 216 225 240 240 208 225 229 229 228 230 219 209 215 214 207 196 186 189 191 188 187 191 194 196 195 199 203 202 202 200 200 198 196 193 194 193 193 191 187 186 187 195 193 187 187 189 192 197 191 197 198 196 194 198 197 202 195 192 192 192
188 161 177 180 182 187 195 201 192 186 194 182 204 206 240 255 247 291 178 103 279 220 0 154 210 275 347 299 260 266 219 217 219 219 226 228 225 212 210 210 210 200 192 192 190 184 186 193 190 195 197 201 202 208 200 201 206 202 195 192 193 194 194 190 184 181 186 192 196 199 200 196 193 197 204 197 195 196 195 185 194 197 193 195 195 194
158 171 177 181 181 184 193 202 194 189 172 203 150 186 218 243 260 267 269 214 251 1 213 199 196 275 281 259 255 267 268 263 242 215 215 219 223 221 210 206 208 207 200 190 191 186 189 190 191 196 200 199 205 202 196 205 203 200 198 193 194 194 194 193 185 184 187 192 192 196 202 204 205 202 199 194 195 193 187 192 193 189 191 191 195 193
176 173 178 177 181 184 196 192 169 178 172 163 171 173 198 216 233 248 277 296 58 51 278 206 193 285 239 262 197 220 246 237 238 239 214 214 217 219 211 205 207 208 204 198 199 196 189 191 195 198 198 203 203 197 201 204 202 202 201 198 195 197 195 194 189 186 190 195 194 195 198 203 208 202 200 189 189 189 186 192 187 187 189 193 194 193
182 177 178 174 176 190 175 168 160 167 185 153 136 85 110 128 214 301 191 6 37 87 258 183 188 248 273 237 256 232 224 238 225 226 236 224 208 207 208 206 207 208 208 205 203 203 198 192 195 197 199 198 201 200 202 203 201 204 203 203 200 202 197 193 192 190 190 194 195 197 200 203 201 197 195 189 192 191 184 193 187 185 189 192 194 194
148 176 159 172 186 177 161 152 162 177 133 146 105 116 94 74 48 34 76 96 34 250 252 179 224 226 296 191 200 182 222 211 220 237 233 240 223 206 208 208 209 207 204 206 209 207 204 200 195 195 194 201 200 197 195 197 198 199 199 203 205 207 200 197 196 192 192 192 197 202 201 201 200 194 189 192 200 192 193 201 197 193 194 193 196 194
164 132 154 246 176 158 148 119 145 191 154 152 138 134 95 6 42 40 10 65 211 256 90 188 194 199 233 234 226 208 209 201 200 213 225 225 228 220 210 215 212 207 205 208 207 207 203 205 206 189 196 197 194 188 192 198 195 195 198 199 204 208 205 201 200 196 196 192 199 206 203 202 201 192 193 195 197 194 197 199 201 197 194 199 197 197
167 176 143 158 315 162 154 138 191 185 167 170 149 144 156 189 112 220 134 210 213 237 340 322 189 233 238 243 288 290 285 301 192 203 215 226 238 233 221 214 212 207 203 202 210 214 208 194 194 194 198 194 184 190 196 196 194 195 197 198 201 207 206 203 200 201 199 195 200 203 204 205 200 197 196 198 200 196 197 196 198 195 199 194 196 197
207 166 172 162 93 224 154 157 161 174 190 179 178 166 173 167 181 210 180 278 300 229 210 114 48 272 288 265 219 233 245 240 244 234 228 226 243 257 290 31 270 253 225 216 208 211 216 211 198 194 195 191 189 193 194 191 191 196 199 200 203 211 203 203 203 205 204 205 203 201 203 204 199 202 198 199 200 199 198 195 197 196 196 193 196 190
157 180 192 159 199 161 187 179 177 177 175 190 169 174 182 168 155 193 178 205 212 187 220 206 97 236 113 260 317 268 251 242 229 238 236 232 237 248 261 202 195 195 171 119 157 174 180 182 172 174 180 188 193 187 184 186 195 193 200 203 208 210 205 205 207 205 208 211 209 203 203 205 204 204 203 203 200 199 200 197 196 199 197 193 195 193
185 52 159 173 78 168 182 187 160 120 148 190 160 132 188 208 157 189 184 193 205 119 67 214 206 300 239 332 289 249 279 270 255 256 252 254 252 247 259 257 245 219 198 171 174 187 181 158 142 142 153 169 183 190 179 189 192 196 205 206 209 210 207 206 208 210 210 211 210 210 207 205 204 204 204 206 203 205 203 199 196 197 196 192 188 188
173 217 169 155 186 179 181 163 180 150 176 171 154 200 191 7 73 177 3 205 46 83 241 157 300 282 310 286 270 275 250 240 233 249 239 242 245 240 241 248 248 218 201 181 187 195 198 193 199 198 197 194 186 185 192 194 192 196 200 202 212 215 211 211 211 213 209 209 207 211 211 208 206 204 205 205 204 204 203 199 197 194 193 178 176 177
166 139 149 174 182 191 189 176 161 189 120 131 191 183 108 57 90 136 213 88 193 225 255 157 220 223 175 279 232 219 237 245 203 219 230 230 230 231 237 239 237 215 205 198 200 202 198 194 197 203 211 208 208 206 206 210 205 201 200 202 208 210 212 216 213 212 210 209 211 212 212 212 210 208 208 206 204 202 197 196 196 189 183 189 181 179
118 85 224 336 187 80 45 82 158 335 322 186 179 150 161 186 213 204 173 223 196 223 253 218 217 218 199 224 354 312 212 233 214 210 220 236 233 236 243 253 239 215 176 192 211 203 203 205 211 202 202 197 187 190 197 210 207 204 207 208 205 213 217 216 216 214 214 211 213 213 213 212 214 212 209 206 202 194 200 196 193 193 193 183 183 179
164 138 88 331 169 144 110 167 181 192 359 38 122 192 216 1 219 176 196 49 136 245 249 250 181 250 187 216 183 249 232 205 211 187 201 218 225 225 220 155 130 132 146 155 154 169 179 170 150 136 141 148 152 128 93 87 121 193 204 202 214 215 211 211 212 209 211 209 206 207 204 211 211 209 203 200 196 197 202 198 189 189 186 186 177 185
169 118 155 164 282 183 174 204 190 173 167 173 181 187 202 183 279 77 223 194 166 203 230 283 273 269 220 186 197 220 230 221 208 204 188 210 226 168 146 149 149 142 133 128 115 108 101 77 84 119 110 110 95 86 85 131 180 214 207 212 214 209 220 221 218 207 212 200 204 193 198 200 199 201 195 195 197 198 200 197 189 189 183 158 181 176
106 169 147 130 185 198 188 190 204 180 171 183 184 192 188 170 124 174 226 182 228 192 221 248 263 264 287 190 189 215 221 214 210 170 205 186 148 148 134 133 152 155 164 149 157 155 161 172 179 153 130 141 147 162 173 180 191 214 221 218 225 224 228 230 235 218 195 169 167 183 184 194 194 194 195 198 197 199 193 191 186 180 167 176 175 170
148 96 129 166 184 177 169 177 302 230 189 188 185 193 185 182 176 178 209 206 177 227 281 230 309 272 203 162 174 181 169 150 136 154 198 161 146 113 120 147 145 152 171 183 183 173 178 184 187 179 176 184 186 187 189 195 196 201 206 214 212 198 227 217 224 190 131 134 124 222 52 219 241 232 215 198 203 199 195 190 178 169 174 174 169 174
82 132 108 63 52 23 93 13 358 0 157 179 223 209 178 196 193 202 201 110 181 140 205 237 253 261 313 44 102 111 112 123 128 148 151 90 94 109 133 129 151 83 210 214 215 176 183 159 142 141 179 181 180 183 198 213 233 231 211 197 189 191 201 206 196 137 112 101 84 60 314 241 229 228 227 222 215 207 199 186 177 168 171 165 162 169
159 232 129 128 112 82 22 80 306 323 284 201 194 201 196 189 193 183 99 134 172 210 187 182 232 250 248 5 351 92 113 147 192 176 130 136 132 142 152 145 93 115 312 302 281 243 202 193 208 230 224 203 184 187 193 198 208 225 211 184 181 185 183 172 160 149 151 153 164 170 196 228 221 218 225 227 215 215 194 183 174 176 175 162 171 172
186 160 159 167 168 172 178 182 183 189 200 195 199 191 199 186 185 182 207 156 218 205 192 202 242 232 286 345 323 276 214 210 224 167 149 157 169 162 139 121 129 127 268 263 254 233 242 230 221 211 208 196 182 183 190 195 192 204 200 196 190 189 193 189 142 140 152 150 161 192 215 228 224 225 225 219 208 201 191 175 172 182 177 171 169 166
158 187 199 185 186 191 191 187 157 124 79 126 162 189 200 202 192 199 185 214 220 209 201 230 250 281 287 262 263 262 225 211 228 183 166 164 192 196 153 150 169 216 234 239 230 223 222 223 222 217 205 200 190 186 190 192 188 186 188 193 186 174 162 152 86 73 93 114 137 160 191 208 229 230 242 245 228 202 184 179 171 167 174 178 169 169
119 187 205 203 209 202 178 120 147 159 173 181 175 181 179 187 181 193 205 221 217 280 273 248 258 266 254 249 213 220 235 234 231 200 202 179 178 183 183 182 197 232 252 242 234 223 219 226 217 208 209 202 203 192 193 196 190 183 180 189 187 165 141 121 104 83 102 113 161 178 191 184 165 164 155 120 108 117 122 125 139 155 147 156 168 176
179 188 191 200 203 141 136 145 155 170 176 177 178 177 185 183 182 192 209 221 204 203 229 233 229 236 247 238 173 200 204 213 211 200 196 187 159 154 153 180 214 230 229 212 230 224 214 218 213 207 203 203 194 198 198 196 195 181 182 182 183 168 162 145 145 164 177 195 216 220 195 188 214 131 112 128 129 136 143 148 148 143 150 165 178 185
182 222 172 186 188 187 146 144 164 175 178 178 187 188 187 185 191 196 208 212 209 215 220 233 230 232 241 212 196 210 190 201 212 164 134 134 160 167 184 201 211 219 218 216 218 212 207 211 206 201 194 196 196 199 199 196 194 193 189 191 184 179 182 148 166 167 179 193 201 193 189 182 182 182 143 127 145 153 151 152 154 156 165 177 179 174
177 203 152 167 179 199 169 147 168 177 170 184 188 191 191 192 198 205 211 217 219 230 232 235 242 256 255 143 197 211 196 191 134 147 173 171 158 178 199 212 220 225 226 219 216 213 204 199 202 196 193 201 199 201 198 198 195 192 194 192 190 187 180 164 166 169 174 185 176 159 142 132 132 130 157 165 148 141 142 142 140 143 148 146 146 153
191 262 158 151 175 201 206 167 173 175 182 187 189 189 188 186 198 206 214 216 204 215 227 239 259 255 248 145 247 227 247 145 171 181 177 174 184 198 204 219 224 231 232 225 218 213 204 201 201 203 214 216 210 202 198 197 192 186 199 191 189 183 169 171 172 170 172 169 152 150 150 146 141 142 145 140 155 154 150 141 145 151 146 141 145 149
177 167 169 171 183 201 201 177 170 162 165 205 203 191 190 195 198 203 212 214 209 211 212 213 227 232 127 151 210 218 213 214 200 188 187 205 207 206 209 219 227 233 235 231 222 213 204 202 204 207 219 219 212 206 208 186 181 199 194 187 184 156 164 170 170 163 163 158 152 154 148 149 154 155 155 158 151 148 136 140 139 143 154 170 163 140
167 168 175 169 194 180 165 146 157 164 200 210 201 196 187 193 199 201 212 217 215 210 221 222 236 238 202 212 197 206 198 211 209 209 198 195 209 227 230 224 227 232 238 232 222 213 215 207 207 210 207 211 214 204 194 181 189 196 179 170 156 159 166 166 172 169 165 159 163 157 159 160 159 162 162 152 146 143 145 154 165 162 155 142 144 165
181 173 178 171 176 165 147 137 168 209 217 220 194 180 197 200 195 205 220 219 215 217 229 237 240 243 224 221 219 231 219 213 202 208 212 197 200 228 238 235 229 222 230 233 232 223 207 202 206 212 220 222 196 175 153 176 167 146 143 149 155 161 163 174 172 174 165 164 163 159 161 162 163 158 153 150 146 147 155 159 153 157 164 164 171 173
190 185 164 184 143 91 160 172 196 219 223 111 128 169 183 183 206 211 234 228 216 212 217 231 241 242 237 236 226 218 209 209 216 218 202 202 208 229 241 238 209 208 215 219 226 222 203 202 200 201 214 195 157 173 171 177 158 143 153 144 153 160 167 172 178 177 166 165 166 167 165 160 158 146 141 143 147 152 157 161 166 164 156 146 146 138
201 190 185 167 185 168 179 183 205 59 70 168 170 180 148 190 200 196 216 233 223 216 216 233 239 237 229 229 213 190 167 181 240 245 204 195 224 229 230 228 196 213 211 220 209 207 192 194 196 202 168 161 167 165 183 165 150 143 141 147 157 160 168 172 185 184 175 170 166 161 156 153 147 145 145 146 147 159 164 164 165 156 148 148 157 158
201 197 171 143 229 165 170 183 217 257 244 211 209 178 189 195 192 198 211 264 213 213 213 217 225 226 225 227 202 213 145 284 256 232 165 214 227 232 224 226 220 214 209 214 190 157 163 150 132 128 143 151 154 167 155 149 145 143 148 156 156 163 175 181 193 185 171 166 160 154 153 152 152 153 155 159 170 170 167 157 152 161 165 164 165 173
220 209 227 194 157 139 188 189 194 209 230 224 171 166 185 172 148 101 158 252 236 206 210 216 228 225 216 206 193 155 193 234 244 194 165 212 228 212 214 229 224 229 229 216 207 207 188 157 143 131 109 121 132 121 121 127 131 136 150 150 151 163 180 187 181 178 174 162 152 151 156 157 155 158 161 172 174 165 165 170 166 155 153 154 151 150
201 191 150 206 140 197 171 189 208 202 240 188 146 178 159 131 121 121 184 254 245 201 208 207 219 216 212 200 173 179 203 226 242 199 205 211 212 198 198 216 223 232 191 69 50 69 99 91 82 78 98 119 154 142 129 133 130 135 141 142 135 157 186 187 179 170 159 149 150 150 149 151 153 158 165 169 160 162 163 150 143 155 154 146 145 144
164 126 190 190 180 193 194 216 278 279 255 150 167 155 148 129 135 157 201 238 111 160 200 199 211 208 201 196 179 207 221 225 227 182 168 163 148 151 51 58 87 91 109 79 74 63 77 72 91 102 96 110 130 133 136 133 131 136 142 137 138 163 179 175 166 155 155 146 143 142 143 143 153 156 156 151 154 151 146 157 155 150 152 147 133 134
176 146 150 168 196 188 195 207 223 248 239 129 166 142 143 138 171 200 219 107 143 165 184 184 198 195 191 195 197 213 222 208 136 142 143 162 166 164 129 118 96 77 78 105 116 115 117 109 110 103 80 71 102 127 137 134 133 140 139 143 155 174 165 153 161 156 144 140 136 135 136 138 135 141 143 137 137 144 157 155 152 159 157 153 154 157
176 170 184 187 170 74 33 225 276 257 228 155 146 146 162 182 207 177 65 21 90 156 161 194 196 197 187 195 200 208 209 140 158 162 170 158 147 156 153 146 141 143 139 121 102 129 129 120 109 105 108 81 75 111 138 127 130 131 131 135 171 152 135 138 145 151 144 137 133 134 136 134 138 136 134 143 147 149 153 147 148 151 149 153 151 156
172 188 184 209 180 170 186 198 213 229 58 147 153 187 197 161 66 194 109 220 17 123 167 156 194 174 188 197 205 205 195 170 141 153 144 148 131 126 118 111 102 97 85 77 104 118 109 104 95 86 66 54 46 57 104 129 130 133 126 145 151 115 113 113 121 127 125 124 121 118 112 113 110 107 113 125 126 126 129 133 131 125 144 138 140 143
189 207 185 189 186 188 195 209 175 177 167 182 167 144 184 235 122 304 123 156 170 240 202 154 191 188 170 180 182 184 185 184 173 167 155 167 152 145 139 129 124 120 120 122 105 102 105 115 115 106 84 59 50 42 55 90 118 114 105 105 103 107 109 112 112 112 111 108 110 106 104 100 98 103 106 116 129 131 129 130 133 137 123 131 131 137
203 197 27 88 226 241 297 282 194 151 195 202 279 205 178 209 22 56 83 176 196 182 169 169 186 166 167 150 146 160 183 172 136 144 124 137 130 121 106 100 95 102 115 114 100 99 108 108 104 105 96 64 46 46 46 52 83 94 89 73 82 92 97 101 97 92 91 86 85 89 92 90 80 79 85 88 93 104 125 142 146 140 132 134 143 150
196 193 225 224 186 172 244 229 143 228 204 201 212 239 201 136 143 92 33 350 340 118 121 57 160 163 158 153 158 169 167 146 141 144 137 134 137 142 140 131 133 135 136 117 119 116 111 111 104 97 89 76 46 49 50 59 54 61 61 64 71 79 87 87 90 88 82 83 83 81 86 91 90 87 78 81 80 82 94 110 128 124 132 147 155 165
255 174 203 216 180 196 236 210 199 199 193 195 183 180 219 158 106 85 125 118 58 56 83 48 70 103 101 148 162 138 161 155 147 156 153 152 149 143 141 135 127 111 94 103 104 106 101 99 100 93 83 69 53 49 52 53 49 44 53 58 68 81 82 82 86 91 89 88 87 86 88 90 98 97 92 88 98 102 91 96 119 137 161 174 179 177
143 129 215 191 219 250 306 287 202 146 203 221 229 234 200 190 150 145 129 105 97 105 81 48 50 139 177 178 146 143 146 184 164 157 146 144 137 138 137 132 118 113 113 104 101 98 102 103 95 90 83 74 65 60 57 52 44 35 41 44 66 89 90 90 87 88 84 84 84 80 82 93 96 103 101 92 80 82 116 143 141 117 91 163 163 177
131 188 203 164 217 235 229 217 142 170 217 209 228 232 257 231 174 171 143 134 141 144 146 109 52 27 73 131 154 156 161 160 155 141 144 146 145 138 131 123 119 113 105 102 102 100 97 93 97 93 82 77 72 69 65 55 43 32 26 31 70 101 107 110 104 98 95 96 96 96 94 87 81 88 96 100 99 85 49 51 95 98 132 62 262 190
194 198 176 193 198 223 227 118 161 154 116 173 188 213 220 213 199 194 191 180 186 175 161 140 127 106 94 42 58 148 157 150 147 134 126 137 136 135 130 132 127 124 118 121 112 106 102 101 99 94 89 88 86 74 68 58 37 30 17 14 32 93 112 114 109 105 101 98 95 102 106 103 93 88 92 92 94 86 91 54 25 84 97 95 47 23